Simultaneous Nadir Overpasses (SNOs) Predictions

Prediction of SNOs between NPP and TERRA Satellite Orbit:

Table of predicted SNOs for the next 14.0 days since TLE Epoch: 2/4/2023
Index Date (NPP) Time (NPP) Lat,Lon (NPP) SZA (NPP ) Date (TERRA) Time (TERRA) Lat,Lon (TERRA) SZA (TERRA ) Distance(km) Time Diff (sec)
1 02/04/2023 05:43:23 70.44, 90.29 86.78 02/04/2023 05:43:26 70.42, 90.32 86.75 2.80 3
2 02/04/2023 06:34:04 -70.29,-102.17 93.39 02/04/2023 06:32:52 -70.30,-102.20 93.37 1.45 72
3 02/06/2023 17:46:43 -70.97, 88.64 93.42 02/06/2023 17:47:53 -70.91, 89.88 93.54 45.52 70
4 02/06/2023 18:37:19 70.44,-103.19 86.01 02/06/2023 18:37:23 70.44,-103.16 86.01 1.12 4
5 02/06/2023 19:28:01 -70.34, 64.28 94.11 02/06/2023 19:26:49 -70.33, 64.33 94.11 2.51 72
6 02/09/2023 06:40:40 -71.02,-104.93 94.16 02/09/2023 06:41:50 -70.92,-103.62 94.33 48.94 70
7 02/09/2023 07:31:15 70.45, 63.33 85.22 02/09/2023 07:31:20 70.44, 63.33 85.21 0.83 5
8 02/09/2023 08:21:57 -70.35,-129.20 94.90 02/09/2023 08:20:46 -70.33,-129.17 94.90 1.82 71
9 02/11/2023 19:34:36 -71.03, 61.58 94.97 02/11/2023 19:35:46 -70.95, 62.93 95.12 49.68 70
10 02/11/2023 20:25:11 70.46,-130.17 84.41 02/11/2023 20:25:16 70.47,-130.13 84.42 1.62 5
11 02/11/2023 21:15:53 -70.36, 37.31 95.71 02/11/2023 21:14:42 -70.37, 37.37 95.69 2.75 71
12 02/14/2023 08:28:31 -71.05,-131.92 95.81 02/14/2023 08:29:41 -70.97,-130.56 95.96 50.27 70
13 02/14/2023 09:19:06 70.48, 36.33 83.58 02/14/2023 09:19:11 70.47, 36.37 83.57 1.63 5
14 02/14/2023 10:09:48 -70.38,-156.19 96.55 02/14/2023 10:08:37 -70.38,-156.12 96.53 2.92 71
15 02/16/2023 21:22:27 -71.07, 34.56 96.65 02/16/2023 21:23:37 -70.95, 35.92 96.84 50.78 70
16 02/16/2023 22:13:01 70.45,-157.10 82.68 02/16/2023 22:13:07 70.45,-157.16 82.68 2.25 6
17 02/16/2023 23:03:43 -70.35, 10.38 97.45 02/16/2023 23:02:33 -70.37, 10.36 97.42 2.72 70



Historial Predications of SNOs between NPP and TERRA
